Location: Alvis C Story Elementary School
(33.0968°N, 96.6364°W)
Time: 21:27:08
(UTC+00:00)

Lacrosse 5 rocket - Pass Details

Date: 30 June 2022
Orbit: 456 x 628 km, 57.0° (Epoch: 13 August)

Event Time Altitude Azimuth Distance (km) Brightness Sun altitude
Rises 03:25:43 0° 337° (NNW) 2,603 6.0 -18.6°
Reaches altitude 10° 03:28:24 10° 357° (N) 1,750 4.6 -19.0°
Maximum altitude 03:31:11 18° 42° (NE) 1,347 3.3 -19.4°
Enters shadow 03:32:23 16° 64° (ENE) 1,448 3.3 -19.6°
